Time,TemperatureF,DewpointF,PressureIn,WindDirection,WindDirectionDegrees,WindSpeedMPH,WindSpeedGustMPH,Humidity,HourlyPrecipIn,Conditions,Clouds,dailyrainin,SoftwareType,DateUTC
2013-06-25 00:04:00,66.4,65.2,29.79,WSW,248,1.0,5.0,96,0.00,RA,OVC,0.00,WeatherDisplay:10.37,2013-06-25 04:04:00,
2013-06-25 00:09:00,66.5,65.3,29.79,SW,223,0.0,3.0,96,0.00,SCT,OVC,0.00,WeatherDisplay:10.37,2013-06-25 04:09:00,
2013-06-25 00:14:00,66.6,65.4,29.79,SW,221,0.0,4.0,96,0.00,FEW,OVC,0.00,WeatherDisplay:10.37,2013-06-25 04:14:00,
2013-06-25 00:19:00,66.7,65.5,29.79,WSW,244,1.0,6.0,96,0.00,FEW,OVC,0.00,WeatherDisplay:10.37,2013-06-25 04:19:00,
2013-06-25 00:24:00,66.9,65.7,29.79,WNW,287,1.0,3.0,96,0.00,FEW,OVC,0.00,WeatherDisplay:10.37,2013-06-25 04:24:00,
2013-06-25 00:29:00,67.1,66.0,29.79,WNW,283,0.0,2.0,96,0.00,FEW,OVC,0.00,WeatherDisplay:10.37,2013-06-25 04:29:00,
2013-06-25 00:34:00,67.2,66.0,29.79,WNW,290,1.0,3.0,96,0.00,FEW,OVC,0.00,WeatherDisplay:10.37,2013-06-25 04:34:00,
2013-06-25 00:39:00,67.3,65.8,29.79,West,280,1.0,3.0,95,0.00,FEW,OVC,0.00,WeatherDisplay:10.37,2013-06-25 04:39:00,
2013-06-25 00:44:00,67.3,65.8,29.78,WSW,256,0.0,3.0,95,0.00,FEW,OVC,0.00,WeatherDisplay:10.37,2013-06-25 04:44:00,
2013-06-25 00:49:00,67.2,66.0,29.78,West,268,1.0,3.0,96,0.00,FEW,OVC,0.00,WeatherDisplay:10.37,2013-06-25 04:49:00,
2013-06-25 00:54:00,67.3,66.1,29.78,WSW,252,0.0,1.0,96,0.00,FEW,OVC,0.00,WeatherDisplay:10.37,2013-06-25 04:54:00,
2013-06-25 00:59:00,67.3,66.1,29.78,WSW,243,0.0,4.0,96,0.00,FEW,OVC,0.00,WeatherDisplay:10.37,2013-06-25 04:59:00,
2013-06-25 01:04:00,67.4,66.2,29.78,WSW,253,0.0,3.0,96,0.00,FEW,OVC,0.00,WeatherDisplay:10.37,2013-06-25 05:04:00,
2013-06-25 01:09:00,67.6,66.4,29.78,West,263,0.0,4.0,96,0.00,FEW,OVC,0.00,WeatherDisplay:10.37,2013-06-25 05:09:00,
2013-06-25 01:14:00,67.7,66.5,29.78,West,263,0.0,3.0,96,0.00,SKC,OVC,0.00,WeatherDisplay:10.37,2013-06-25 05:14:00,
2013-06-25 01:19:00,67.8,66.6,29.78,WSW,249,0.0,3.0,96,0.00,SKC,OVC,0.00,WeatherDisplay:10.37,2013-06-25 05:19:00,
2013-06-25 01:24:00,68.0,66.8,29.78,SW,235,0.0,2.0,96,0.00,SKC,OVC,0.00,WeatherDisplay:10.37,2013-06-25 05:24:00,
2013-06-25 01:29:00,68.2,67.0,29.78,WSW,250,1.0,5.0,96,0.00,SKC,OVC,0.00,WeatherDisplay:10.37,2013-06-25 05:29:00,
2013-06-25 01:34:00,68.4,67.5,29.77,West,271,0.0,4.0,97,0.00,SKC,OVC,0.00,WeatherDisplay:10.37,2013-06-25 05:34:00,
2013-06-25 01:39:00,68.5,67.3,29.77,WSW,256,0.0,4.0,96,0.00,SKC,OVC,0.00,WeatherDisplay:10.37,2013-06-25 05:39:00,
2013-06-25 01:44:00,68.4,67.2,29.77,SW,225,0.0,3.0,96,0.00,SKC,OVC,0.00,WeatherDisplay:10.37,2013-06-25 05:44:00,
2013-06-25 01:49:00,68.3,67.1,29.77,SW,225,0.0,5.0,96,0.00,SKC,OVC,0.00,WeatherDisplay:10.37,2013-06-25 05:49:00,
2013-06-25 01:54:00,68.3,67.1,29.77,SW,236,0.0,1.0,96,0.00,SKC,OVC,0.00,WeatherDisplay:10.37,2013-06-25 05:54:00,
2013-06-25 01:59:00,68.2,67.0,29.77,SW,234,0.0,4.0,96,0.00,SKC,OVC,0.00,WeatherDisplay:10.37,2013-06-25 05:59:00,
2013-06-25 02:04:00,68.3,68.3,29.77,SW,236,0.0,2.0,100,0.00,SKC,OVC,0.00,WeatherDisplay:10.37,2013-06-25 06:04:00,
2013-06-25 02:09:00,68.3,68.3,29.77,WSW,256,0.0,3.0,100,0.00,SKC,OVC,0.00,WeatherDisplay:10.37,2013-06-25 06:09:00,
2013-06-25 02:14:00,68.5,68.5,29.78,West,269,0.0,5.0,100,0.00,SKC,OVC,0.00,WeatherDisplay:10.37,2013-06-25 06:14:00,
2013-06-25 02:19:00,68.4,68.4,29.78,WSW,248,0.0,2.0,100,0.00,SKC,OVC,0.00,WeatherDisplay:10.37,2013-06-25 06:19:00,
2013-06-25 02:24:00,68.3,68.3,29.78,SW,223,0.0,2.0,100,0.00,SKC,OVC,0.00,WeatherDisplay:10.37,2013-06-25 06:24:00,
2013-06-25 02:29:00,68.4,68.4,29.78,WSW,247,0.0,2.0,100,0.00,SKC,OVC,0.00,WeatherDisplay:10.37,2013-06-25 06:29:00,
2013-06-25 02:34:00,68.4,68.4,29.77,WSW,246,0.0,3.0,100,0.00,SKC,OVC,0.00,WeatherDisplay:10.37,2013-06-25 06:34:00,
2013-06-25 02:39:00,68.4,68.4,29.77,SW,231,1.0,3.0,100,0.00,SKC,OVC,0.00,WeatherDisplay:10.37,2013-06-25 06:39:00,
2013-06-25 02:44:00,68.4,68.4,29.77,SW,236,0.0,2.0,100,0.00,SKC,OVC,0.00,WeatherDisplay:10.37,2013-06-25 06:44:00,
2013-06-25 02:49:00,68.4,68.4,29.77,WSW,251,0.0,2.0,100,0.00,SKC,OVC,0.00,WeatherDisplay:10.37,2013-06-25 06:49:00,
2013-06-25 02:54:00,68.3,68.3,29.77,WSW,240,0.0,2.0,100,0.00,SKC,OVC,0.00,WeatherDisplay:10.37,2013-06-25 06:54:00,
2013-06-25 02:59:00,68.3,68.3,29.77,SW,236,0.0,3.0,100,0.00,SKC,OVC,0.00,WeatherDisplay:10.37,2013-06-25 06:59:00,
2013-06-25 03:04:00,68.3,68.3,29.77,WSW,244,0.0,2.0,100,0.00,SKC,OVC,0.00,WeatherDisplay:10.37,2013-06-25 07:04:00,
2013-06-25 03:14:00,68.4,68.4,29.77,WSW,249,0.0,1.0,100,0.00,SCT,OVC,0.00,WeatherDisplay:10.37,2013-06-25 07:14:00,
2013-06-25 03:19:00,68.7,68.7,29.77,West,259,0.0,3.0,100,0.00,SCT,OVC,0.00,WeatherDisplay:10.37,2013-06-25 07:19:00,
2013-06-25 03:24:00,68.9,68.9,29.77,West,268,0.0,6.0,100,0.00,SCT,OVC,0.00,WeatherDisplay:10.37,2013-06-25 07:24:00,
2013-06-25 03:29:00,69.1,69.1,29.77,WNW,298,2.0,5.0,100,0.00,SCT,OVC,0.00,WeatherDisplay:10.37,2013-06-25 07:29:00,
2013-06-25 03:34:00,69.4,69.4,29.77,WNW,289,1.0,4.0,100,0.00,SCT,OVC,0.00,WeatherDisplay:10.37,2013-06-25 07:34:00,
2013-06-25 03:39:00,69.6,69.6,29.77,West,263,2.0,5.0,100,0.00,SCT,OVC,0.00,WeatherDisplay:10.37,2013-06-25 07:39:00,
2013-06-25 03:44:00,69.8,69.8,29.77,WNW,282,1.0,7.0,100,0.00,SCT,OVC,0.00,WeatherDisplay:10.37,2013-06-25 07:44:00,
2013-06-25 03:49:00,70.0,70.0,29.77,WNW,290,1.0,7.0,100,0.00,SCT,OVC,0.00,WeatherDisplay:10.37,2013-06-25 07:49:00,
2013-06-25 03:54:00,70.0,70.1,29.77,WNW,284,1.0,5.0,100,0.00,SCT,OVC,0.00,WeatherDisplay:10.37,2013-06-25 07:54:00,
2013-06-25 04:04:00,70.0,68.8,29.77,WNW,286,0.0,3.0,96,0.00,SCT,OVC,0.00,WeatherDisplay:10.37,2013-06-25 08:04:00,
2013-06-25 04:09:00,69.9,68.7,29.77,West,261,0.0,2.0,96,0.00,SCT,OVC,0.00,WeatherDisplay:10.37,2013-06-25 08:09:00,
2013-06-25 04:14:00,69.8,68.6,29.77,West,267,1.0,6.0,96,0.00,SCT,OVC,0.00,WeatherDisplay:10.37,2013-06-25 08:14:00,
2013-06-25 04:19:00,69.8,68.6,29.77,West,272,0.0,5.0,96,0.00,SCT,OVC,0.00,WeatherDisplay:10.37,2013-06-25 08:19:00,
2013-06-25 04:24:00,69.8,68.6,29.77,West,270,0.0,5.0,96,0.00,SCT,OVC,0.00,WeatherDisplay:10.37,2013-06-25 08:24:00,
2013-06-25 04:29:00,69.6,68.4,29.76,West,266,0.0,4.0,96,0.00,SCT,OVC,0.00,WeatherDisplay:10.37,2013-06-25 08:29:00,
2013-06-25 04:34:00,69.4,68.3,29.76,West,265,1.0,3.0,96,0.00,SCT,OVC,0.00,WeatherDisplay:10.37,2013-06-25 08:34:00,
2013-06-25 04:39:00,69.3,68.1,29.77,WSW,246,0.0,4.0,96,0.00,SCT,OVC,0.00,WeatherDisplay:10.37,2013-06-25 08:39:00,
2013-06-25 04:44:00,69.2,68.0,29.77,WSW,241,0.0,2.0,96,0.00,SCT,OVC,0.00,WeatherDisplay:10.37,2013-06-25 08:44:00,
2013-06-25 04:49:00,69.2,69.2,29.77,West,274,1.0,5.0,100,0.00,SCT,OVC,0.00,WeatherDisplay:10.37,2013-06-25 08:49:00,
2013-06-25 04:54:00,69.2,68.0,29.77,West,267,0.0,6.0,96,0.00,SCT,OVC,0.00,WeatherDisplay:10.37,2013-06-25 08:54:00,
2013-06-25 04:59:00,69.4,69.4,29.77,West,280,1.0,6.0,100,0.00,SCT,OVC,0.00,WeatherDisplay:10.37,2013-06-25 08:59:00,
2013-06-25 05:04:00,69.5,68.3,29.77,West,269,0.0,6.0,96,0.00,SCT,OVC,0.00,WeatherDisplay:10.37,2013-06-25 09:04:00,
2013-06-25 05:09:00,69.5,68.3,29.77,WSW,253,0.0,6.0,96,0.00,SCT,OVC,0.00,WeatherDisplay:10.37,2013-06-25 09:09:00,
2013-06-25 05:14:00,69.5,68.3,29.77,West,269,0.0,5.0,96,0.00,SCT,OVC,0.00,WeatherDisplay:10.37,2013-06-25 09:14:00,
2013-06-25 05:19:00,69.5,68.3,29.77,West,267,0.0,5.0,96,0.00,SCT,OVC,0.00,WeatherDisplay:10.37,2013-06-25 09:19:00,
2013-06-25 05:24:00,69.4,68.2,29.77,WSW,254,0.0,2.0,96,0.00,SCT,OVC,0.00,WeatherDisplay:10.37,2013-06-25 09:24:00,
2013-06-25 05:29:00,69.3,68.1,29.77,WSW,238,0.0,3.0,96,0.00,SCT,OVC,0.00,WeatherDisplay:10.37,2013-06-25 09:29:00,
2013-06-25 05:34:00,69.2,68.0,29.77,WSW,243,0.0,3.0,96,0.00,SCT,OVC,0.00,WeatherDisplay:10.37,2013-06-25 09:34:00,
2013-06-25 05:39:00,69.1,68.2,29.77,WSW,246,0.0,4.0,97,0.00,SCT,OVC,0.00,WeatherDisplay:10.37,2013-06-25 09:39:00,
2013-06-25 05:44:00,69.1,69.1,29.77,WSW,239,0.0,4.0,100,0.00,SCT,OVC,0.00,WeatherDisplay:10.37,2013-06-25 09:44:00,
2013-06-25 05:49:00,69.1,69.1,29.77,SW,233,0.0,5.0,100,0.00,SCT,OVC,0.00,WeatherDisplay:10.37,2013-06-25 09:49:00,
2013-06-25 05:54:00,69.1,69.1,29.77,SW,222,0.0,4.0,100,0.00,SCT,OVC,0.00,WeatherDisplay:10.37,2013-06-25 09:54:00,
2013-06-25 05:59:00,69.1,69.1,29.77,SW,222,1.0,3.0,100,0.00,SCT,OVC,0.00,WeatherDisplay:10.37,2013-06-25 09:59:00,
2013-06-25 06:04:00,69.1,69.1,29.77,SW,233,2.0,10.0,100,0.00,SCT,OVC,0.00,WeatherDisplay:10.37,2013-06-25 10:04:00,
2013-06-25 06:09:00,69.1,69.1,29.77,WSW,238,1.0,6.0,100,0.00,SCT,OVC,0.00,WeatherDisplay:10.37,2013-06-25 10:09:00,
2013-06-25 06:14:00,69.1,69.1,29.77,WSW,249,1.0,6.0,100,0.00,FEW,OVC,0.00,WeatherDisplay:10.37,2013-06-25 10:14:00,
2013-06-25 06:19:00,69.1,69.1,29.77,SW,236,2.0,9.0,100,0.00,FEW,OVC,0.00,WeatherDisplay:10.37,2013-06-25 10:19:00,
2013-06-25 06:24:00,69.1,69.1,29.77,WSW,257,0.0,9.0,100,0.00,FEW,OVC,0.00,WeatherDisplay:10.37,2013-06-25 10:24:00,
2013-06-25 06:29:00,69.1,69.1,29.77,WSW,252,0.0,6.0,100,0.00,FEW,OVC,0.00,WeatherDisplay:10.37,2013-06-25 10:29:00,
2013-06-25 06:34:00,69.1,69.1,29.76,SW,233,1.0,5.0,100,0.00,FEW,OVC,0.00,WeatherDisplay:10.37,2013-06-25 10:34:00,
2013-06-25 06:39:00,69.2,69.2,29.76,SW,231,0.0,5.0,100,0.00,FEW,OVC,0.00,WeatherDisplay:10.37,2013-06-25 10:39:00,
2013-06-25 06:44:00,69.4,69.4,29.76,WSW,238,1.0,4.0,100,0.00,FEW,OVC,0.00,WeatherDisplay:10.37,2013-06-25 10:44:00,
2013-06-25 06:49:00,69.5,69.5,29.77,WSW,251,2.0,10.0,100,0.00,FEW,OVC,0.00,WeatherDisplay:10.37,2013-06-25 10:49:00,
2013-06-25 06:54:00,69.7,69.1,29.76,WSW,237,3.0,8.0,98,0.00,FEW,OVC,0.00,WeatherDisplay:10.37,2013-06-25 10:54:00,
2013-06-25 06:59:00,69.8,68.6,29.76,WSW,243,2.0,8.0,96,0.00,FEW,OVC,0.00,WeatherDisplay:10.37,2013-06-25 10:59:00,
2013-06-25 07:04:00,69.9,68.7,29.77,WSW,256,2.0,9.0,96,0.00,FEW,OVC,0.00,WeatherDisplay:10.37,2013-06-25 11:04:00,
2013-06-25 07:09:00,70.2,69.0,29.77,West,277,0.0,5.0,96,0.00,FEW,OVC,0.00,WeatherDisplay:10.37,2013-06-25 11:09:00,
2013-06-25 07:14:00,70.4,68.9,29.77,West,262,2.0,8.0,95,0.00,BKN,OVC,0.00,WeatherDisplay:10.37,2013-06-25 11:14:00,
2013-06-25 07:19:00,70.6,69.1,29.76,West,264,1.0,6.0,95,0.00,BKN,OVC,0.00,WeatherDisplay:10.37,2013-06-25 11:19:00,
2013-06-25 07:24:00,70.8,68.9,29.76,WNW,286,2.0,12.0,94,0.00,BKN,OVC,0.00,WeatherDisplay:10.37,2013-06-25 11:24:00,
2013-06-25 07:29:00,71.0,69.2,29.76,WSW,248,1.0,4.0,94,0.00,BKN,OVC,0.00,WeatherDisplay:10.37,2013-06-25 11:29:00,
2013-06-25 07:34:00,71.2,69.4,29.76,SW,229,1.0,5.0,94,0.00,BKN,OVC,0.00,WeatherDisplay:10.37,2013-06-25 11:34:00,
2013-06-25 07:39:00,71.5,69.3,29.77,WSW,242,1.0,7.0,93,0.00,BKN,OVC,0.00,WeatherDisplay:10.37,2013-06-25 11:39:00,
2013-06-25 07:44:00,71.8,69.3,29.76,WNW,282,1.0,5.0,92,0.00,BKN,OVC,0.00,WeatherDisplay:10.37,2013-06-25 11:44:00,
2013-06-25 07:49:00,72.1,69.6,29.76,WNW,291,2.0,6.0,92,0.00,BKN,OVC,0.00,WeatherDisplay:10.37,2013-06-25 11:49:00,
2013-06-25 07:54:00,72.6,70.1,29.76,WNW,284,0.0,3.0,92,0.00,BKN,OVC,0.00,WeatherDisplay:10.37,2013-06-25 11:54:00,
2013-06-25 07:59:00,73.1,70.0,29.76,WSW,244,1.0,5.0,90,0.00,BKN,OVC,0.00,WeatherDisplay:10.37,2013-06-25 11:59:00,
2013-06-25 08:04:00,73.4,70.3,29.76,WSW,244,1.0,5.0,90,0.00,BKN,OVC,0.00,WeatherDisplay:10.37,2013-06-25 12:04:00,
2013-06-25 08:09:00,73.1,70.0,29.77,West,268,0.0,5.0,90,0.00,BKN,OVC,0.00,WeatherDisplay:10.37,2013-06-25 12:09:00,
2013-06-25 08:14:00,72.8,69.7,29.77,West,266,0.0,9.0,90,0.00,BKN,OVC,0.00,WeatherDisplay:10.37,2013-06-25 12:14:00,
2013-06-25 08:19:00,72.6,69.5,29.76,WSW,258,1.0,5.0,90,0.00,BKN,OVC,0.00,WeatherDisplay:10.37,2013-06-25 12:19:00,
2013-06-25 08:24:00,72.6,69.8,29.77,WSW,239,1.0,6.0,91,0.00,BKN,OVC,0.00,WeatherDisplay:10.37,2013-06-25 12:24:00,
2013-06-25 08:29:00,72.5,69.8,29.76,WSW,238,1.0,6.0,91,0.00,BKN,OVC,0.00,WeatherDisplay:10.37,2013-06-25 12:29:00,
2013-06-25 08:34:00,72.3,69.2,29.76,WSW,245,2.0,7.0,90,0.00,BKN,OVC,0.00,WeatherDisplay:10.37,2013-06-25 12:34:00,
2013-06-25 08:39:00,72.2,69.7,29.76,WSW,237,0.0,4.0,92,0.00,BKN,OVC,0.00,WeatherDisplay:10.37,2013-06-25 12:39:00,
2013-06-25 08:44:00,72.3,69.8,29.76,SW,222,0.0,3.0,92,0.00,BKN,OVC,0.00,WeatherDisplay:10.37,2013-06-25 12:44:00,
2013-06-25 08:49:00,72.3,69.8,29.77,SW,221,0.0,2.0,92,0.00,BKN,OVC,0.00,WeatherDisplay:10.37,2013-06-25 12:49:00,
2013-06-25 08:54:00,72.3,69.8,29.77,WSW,242,0.0,3.0,92,0.00,BKN,OVC,0.00,WeatherDisplay:10.37,2013-06-25 12:54:00,
2013-06-25 08:59:00,72.1,69.6,29.77,SW,220,1.0,5.0,92,0.00,BKN,OVC,0.00,WeatherDisplay:10.37,2013-06-25 12:59:00,
2013-06-25 09:04:00,72.1,70.0,29.77,SW,227,1.0,5.0,93,0.00,BKN,OVC,0.00,WeatherDisplay:10.37,2013-06-25 13:04:00,
2013-06-25 09:09:00,72.0,69.5,29.77,WSW,247,0.0,3.0,92,0.00,BKN,OVC,0.00,WeatherDisplay:10.37,2013-06-25 13:09:00,
2013-06-25 09:14:00,72.1,69.6,29.77,WSW,240,1.0,4.0,92,0.00,OVC,OVC,0.00,WeatherDisplay:10.37,2013-06-25 13:14:00,
2013-06-25 09:19:00,72.0,69.5,29.77,WSW,239,0.0,4.0,92,0.00,OVC,OVC,0.00,WeatherDisplay:10.37,2013-06-25 13:19:00,
2013-06-25 09:24:00,71.8,69.1,29.77,WSW,246,0.0,6.0,91,0.00,OVC,OVC,0.00,WeatherDisplay:10.37,2013-06-25 13:24:00,
2013-06-25 09:29:00,72.1,69.6,29.77,WSW,245,1.0,6.0,92,0.00,OVC,OVC,0.00,WeatherDisplay:10.37,2013-06-25 13:29:00,
2013-06-25 09:34:00,72.3,69.5,29.77,SW,232,1.0,9.0,91,0.00,OVC,OVC,0.00,WeatherDisplay:10.37,2013-06-25 13:34:00,
2013-06-25 09:44:00,72.6,69.5,29.77,SW,234,2.0,9.0,90,0.00,OVC,OVC,0.00,WeatherDisplay:10.37,2013-06-25 13:44:00,
2013-06-25 09:49:00,73.5,70.3,29.76,SW,236,0.0,6.0,90,0.00,OVC,OVC,0.00,WeatherDisplay:10.37,2013-06-25 13:49:00,
2013-06-25 09:54:00,74.2,70.4,29.76,West,261,3.0,7.0,88,0.00,OVC,OVC,0.00,WeatherDisplay:10.37,2013-06-25 13:54:00,
2013-06-25 09:59:00,75.0,71.2,29.76,WSW,258,2.0,7.0,88,0.00,OVC,OVC,0.00,WeatherDisplay:10.37,2013-06-25 13:59:00,
2013-06-25 10:04:00,75.4,70.9,29.76,SW,233,2.0,6.0,86,0.00,OVC,OVC,0.00,WeatherDisplay:10.37,2013-06-25 14:04:00,
2013-06-25 10:09:00,76.0,71.1,29.76,WSW,239,1.0,5.0,85,0.00,OVC,OVC,0.00,WeatherDisplay:10.37,2013-06-25 14:09:00,
2013-06-25 10:14:00,76.8,72.0,29.76,WSW,256,1.0,7.0,85,0.00,BKN,OVC,0.00,WeatherDisplay:10.37,2013-06-25 14:14:00,
2013-06-25 10:19:00,76.6,71.4,29.76,WSW,251,0.0,7.0,84,0.00,BKN,OVC,0.00,WeatherDisplay:10.37,2013-06-25 14:19:00,
2013-06-25 10:24:00,76.9,71.4,29.76,West,270,3.0,6.0,83,0.00,BKN,OVC,0.00,WeatherDisplay:10.37,2013-06-25 14:24:00,
2013-06-25 10:29:00,77.3,71.8,29.76,West,266,3.0,8.0,83,0.00,BKN,OVC,0.00,WeatherDisplay:10.37,2013-06-25 14:29:00,
2013-06-25 10:34:00,77.3,72.1,29.76,SW,226,0.0,7.0,84,0.00,BKN,OVC,0.00,WeatherDisplay:10.37,2013-06-25 14:34:00,
2013-06-25 10:39:00,77.6,71.7,29.76,SW,219,2.0,6.0,82,0.00,BKN,OVC,0.00,WeatherDisplay:10.37,2013-06-25 14:39:00,
2013-06-25 10:44:00,77.6,71.7,29.76,SSW,210,1.0,3.0,82,0.00,BKN,OVC,0.00,WeatherDisplay:10.37,2013-06-25 14:44:00,
2013-06-25 10:49:00,77.3,71.8,29.76,SW,229,0.0,7.0,83,0.00,BKN,OVC,0.00,WeatherDisplay:10.37,2013-06-25 14:49:00,
2013-06-25 10:54:00,77.3,71.3,29.76,SW,230,1.0,7.0,82,0.00,BKN,OVC,0.00,WeatherDisplay:10.37,2013-06-25 14:54:00,
2013-06-25 10:59:00,77.7,71.4,29.76,SW,232,1.0,7.0,81,0.00,BKN,OVC,0.00,WeatherDisplay:10.37,2013-06-25 14:59:00,
2013-06-25 11:04:00,78.4,71.7,29.76,West,272,2.0,9.0,80,0.00,BKN,OVC,0.00,WeatherDisplay:10.37,2013-06-25 15:04:00,
2013-06-25 11:09:00,79.4,73.1,29.76,West,272,0.0,3.0,81,0.00,BKN,OVC,0.00,WeatherDisplay:10.37,2013-06-25 15:09:00,
2013-06-25 11:14:00,79.2,72.5,29.76,WSW,238,1.0,3.0,80,0.00,BKN,OVC,0.00,WeatherDisplay:10.37,2013-06-25 15:14:00,
2013-06-25 11:19:00,78.9,71.9,29.76,West,264,2.0,7.0,79,0.00,BKN,OVC,0.00,WeatherDisplay:10.37,2013-06-25 15:19:00,
2013-06-25 11:24:00,78.8,72.8,29.75,WSW,252,0.0,3.0,82,0.00,BKN,OVC,0.00,WeatherDisplay:10.37,2013-06-25 15:24:00,
2013-06-25 11:29:00,80.0,72.5,29.75,WSW,253,1.0,3.0,78,0.00,BKN,OVC,0.00,WeatherDisplay:10.37,2013-06-25 15:29:00,
2013-06-25 11:34:00,80.2,72.7,29.75,WSW,247,2.0,8.0,78,0.00,BKN,OVC,0.00,WeatherDisplay:10.37,2013-06-25 15:34:00,
2013-06-25 11:39:00,80.1,73.0,29.75,West,264,0.0,2.0,79,0.00,BKN,OVC,0.00,WeatherDisplay:10.37,2013-06-25 15:39:00,
2013-06-25 11:44:00,80.9,73.8,29.75,West,265,0.0,2.0,79,0.00,BKN,OVC,0.00,WeatherDisplay:10.37,2013-06-25 15:44:00,
2013-06-25 11:49:00,80.9,73.0,29.75,WSW,243,0.0,4.0,77,0.00,BKN,OVC,0.00,WeatherDisplay:10.37,2013-06-25 15:49:00,
2013-06-25 11:54:00,80.9,72.2,29.75,SW,232,2.0,8.0,75,0.00,BKN,OVC,0.00,WeatherDisplay:10.37,2013-06-25 15:54:00,
2013-06-25 11:59:00,80.4,71.7,29.75,WSW,253,2.0,6.0,75,0.00,BKN,OVC,0.00,WeatherDisplay:10.37,2013-06-25 15:59:00,
2013-06-25 12:04:00,80.3,72.4,29.75,West,264,1.0,5.0,77,0.00,BKN,OVC,0.00,WeatherDisplay:10.37,2013-06-25 16:04:00,
2013-06-25 12:09:00,79.8,71.6,29.75,WSW,239,1.0,8.0,76,0.00,BKN,OVC,0.00,WeatherDisplay:10.37,2013-06-25 16:09:00,
2013-06-25 12:14:00,79.8,72.3,29.75,SW,226,0.0,8.0,78,0.00,BKN,OVC,0.00,WeatherDisplay:10.37,2013-06-25 16:14:00,
2013-06-25 12:19:00,79.9,72.4,29.74,WSW,244,1.0,5.0,78,0.00,BKN,OVC,0.00,WeatherDisplay:10.37,2013-06-25 16:19:00,
2013-06-25 12:24:00,79.5,72.4,29.74,WSW,251,0.0,4.0,79,0.00,BKN,OVC,0.00,WeatherDisplay:10.37,2013-06-25 16:24:00,
2013-06-25 12:29:00,79.5,72.8,29.74,NNW,335,1.0,5.0,80,0.00,BKN,OVC,0.00,WeatherDisplay:10.37,2013-06-25 16:29:00,
2013-06-25 12:34:00,80.2,73.1,29.74,WNW,283,0.0,4.0,79,0.00,BKN,OVC,0.00,WeatherDisplay:10.37,2013-06-25 16:34:00,
2013-06-25 12:39:00,80.2,72.7,29.74,South,176,2.0,6.0,78,0.00,BKN,OVC,0.00,WeatherDisplay:10.37,2013-06-25 16:39:00,
2013-06-25 12:44:00,79.5,72.4,29.74,SW,226,2.0,9.0,79,0.00,BKN,OVC,0.00,WeatherDisplay:10.37,2013-06-25 16:44:00,
2013-06-25 12:49:00,79.3,72.2,29.74,SW,234,1.0,6.0,79,0.00,BKN,OVC,0.00,WeatherDisplay:10.37,2013-06-25 16:49:00,
2013-06-25 12:54:00,79.7,72.6,29.74,West,273,2.0,6.0,79,0.00,BKN,OVC,0.00,WeatherDisplay:10.37,2013-06-25 16:54:00,
2013-06-25 12:59:00,80.1,73.7,29.74,WSW,248,0.0,3.0,81,0.00,BKN,OVC,0.00,WeatherDisplay:10.37,2013-06-25 16:59:00,
2013-06-25 13:04:00,80.4,72.9,29.74,West,263,2.0,7.0,78,0.00,BKN,OVC,0.00,WeatherDisplay:10.37,2013-06-25 17:04:00,
2013-06-25 13:09:00,80.1,72.6,29.73,West,277,1.0,5.0,78,0.00,BKN,OVC,0.00,WeatherDisplay:10.37,2013-06-25 17:09:00,
2013-06-25 13:14:00,79.2,72.8,29.73,West,280,1.0,6.0,81,0.02,RA,OVC,0.02,WeatherDisplay:10.37,2013-06-25 17:14:00,
2013-06-25 13:19:00,76.6,71.7,29.74,WNW,296,5.0,8.0,85,0.03,RA,OVC,0.05,WeatherDisplay:10.37,2013-06-25 17:19:00,
2013-06-25 13:24:00,73.6,68.8,29.74,NW,311,2.0,9.0,85,0.02,RA,OVC,0.08,WeatherDisplay:10.37,2013-06-25 17:24:00,
2013-06-25 13:29:00,71.0,67.0,29.75,NW,326,3.0,7.0,87,0.09,RA,OVC,0.22,WeatherDisplay:10.37,2013-06-25 17:29:00,
2013-06-25 13:34:00,69.1,65.4,29.74,West,266,0.0,13.0,88,0.20,RA,OVC,0.39,WeatherDisplay:10.37,2013-06-25 17:34:00,
2013-06-25 13:39:00,68.0,66.2,29.73,SSW,197,0.0,0.0,94,0.07,RA,OVC,0.45,WeatherDisplay:10.37,2013-06-25 17:39:00,
2013-06-25 13:44:00,68.8,67.3,29.73,SSW,201,0.0,2.0,95,0.00,RA,OVC,0.45,WeatherDisplay:10.37,2013-06-25 17:44:00,
2013-06-25 13:49:00,70.2,69.0,29.72,WNW,289,0.0,1.0,96,0.00,OVC,OVC,0.45,WeatherDisplay:10.37,2013-06-25 17:49:00,
2013-06-25 13:54:00,70.7,69.5,29.72,WNW,301,0.0,3.0,96,0.00,OVC,OVC,0.45,WeatherDisplay:10.37,2013-06-25 17:54:00,
2013-06-25 13:59:00,71.7,70.5,29.72,NW,306,1.0,3.0,96,0.00,OVC,OVC,0.45,WeatherDisplay:10.37,2013-06-25 17:59:00,
2013-06-25 14:09:00,72.9,71.4,29.73,West,265,0.0,2.0,95,0.00,OVC,OVC,0.45,WeatherDisplay:10.37,2013-06-25 18:09:00,
2013-06-25 14:14:00,73.0,70.8,29.73,WNW,286,1.0,3.0,93,0.00,OVC,OVC,0.45,WeatherDisplay:10.37,2013-06-25 18:14:00,
2013-06-25 14:19:00,73.3,71.5,29.72,WNW,291,0.0,3.0,94,0.00,OVC,OVC,0.45,WeatherDisplay:10.37,2013-06-25 18:19:00,
2013-06-25 14:24:00,74.1,72.3,29.72,West,276,0.0,3.0,94,0.00,OVC,OVC,0.45,WeatherDisplay:10.37,2013-06-25 18:24:00,
2013-06-25 14:29:00,75.4,73.3,29.72,WNW,302,2.0,5.0,93,0.00,OVC,OVC,0.45,WeatherDisplay:10.37,2013-06-25 18:29:00,
2013-06-25 14:34:00,76.8,74.0,29.71,WNW,286,1.0,7.0,91,0.00,OVC,OVC,0.45,WeatherDisplay:10.37,2013-06-25 18:34:00,
2013-06-25 14:39:00,78.4,75.2,29.71,WNW,290,2.0,8.0,90,0.00,OVC,OVC,0.45,WeatherDisplay:10.37,2013-06-25 18:39:00,
2013-06-25 14:44:00,78.2,74.0,29.71,WNW,285,1.0,8.0,87,0.00,OVC,OVC,0.45,WeatherDisplay:10.37,2013-06-25 18:44:00,
2013-06-25 14:49:00,77.7,73.5,29.71,West,280,3.0,8.0,87,0.00,OVC,OVC,0.45,WeatherDisplay:10.37,2013-06-25 18:49:00,
2013-06-25 14:54:00,78.4,73.8,29.71,WNW,297,3.0,6.0,86,0.00,OVC,OVC,0.45,WeatherDisplay:10.37,2013-06-25 18:54:00,
2013-06-25 14:59:00,79.2,73.6,29.71,WNW,284,3.0,10.0,83,0.00,OVC,OVC,0.45,WeatherDisplay:10.37,2013-06-25 18:59:00,
2013-06-25 15:04:00,79.7,72.6,29.71,WNW,301,2.0,8.0,79,0.00,OVC,OVC,0.45,WeatherDisplay:10.37,2013-06-25 19:04:00,
2013-06-25 15:09:00,80.1,72.2,29.71,WNW,297,3.0,9.0,77,0.00,OVC,OVC,0.45,WeatherDisplay:10.37,2013-06-25 19:09:00,
2013-06-25 15:14:00,80.2,73.1,29.71,WNW,289,1.0,4.0,79,0.00,OVC,OVC,0.45,WeatherDisplay:10.37,2013-06-25 19:14:00,
2013-06-25 15:19:00,79.0,72.0,29.71,West,259,3.0,10.0,79,0.00,OVC,OVC,0.45,WeatherDisplay:10.37,2013-06-25 19:19:00,
2013-06-25 15:24:00,78.5,72.5,29.71,West,271,0.0,10.0,82,0.00,OVC,OVC,0.45,WeatherDisplay:10.37,2013-06-25 19:24:00,
2013-06-25 15:29:00,78.0,72.1,29.71,West,269,2.0,7.0,82,0.00,OVC,OVC,0.45,WeatherDisplay:10.37,2013-06-25 19:29:00,
2013-06-25 15:34:00,77.9,71.6,29.70,West,268,1.0,4.0,81,0.00,OVC,OVC,0.45,WeatherDisplay:10.37,2013-06-25 19:34:00,
2013-06-25 15:39:00,77.7,72.1,29.70,West,265,1.0,6.0,83,0.00,OVC,OVC,0.45,WeatherDisplay:10.37,2013-06-25 19:39:00,
2013-06-25 15:44:00,77.4,72.2,29.69,WSW,247,1.0,4.0,84,0.00,OVC,OVC,0.45,WeatherDisplay:10.37,2013-06-25 19:44:00,
2013-06-25 15:49:00,77.6,72.0,29.69,West,281,2.0,5.0,83,0.00,OVC,OVC,0.45,WeatherDisplay:10.37,2013-06-25 19:49:00,
2013-06-25 15:54:00,77.4,72.5,29.69,WSW,242,0.0,4.0,85,0.00,OVC,OVC,0.45,WeatherDisplay:10.37,2013-06-25 19:54:00,
2013-06-25 15:59:00,77.3,72.1,29.69,West,264,1.0,8.0,84,0.00,OVC,OVC,0.45,WeatherDisplay:10.37,2013-06-25 19:59:00,
2013-06-25 16:09:00,77.3,71.7,29.69,West,261,2.0,8.0,83,0.00,OVC,OVC,0.45,WeatherDisplay:10.37,2013-06-25 20:09:00,
2013-06-25 16:14:00,77.2,70.9,29.68,NW,305,0.0,7.0,81,0.00,BKN,OVC,0.45,WeatherDisplay:10.37,2013-06-25 20:14:00,
2013-06-25 16:19:00,77.1,70.4,29.68,NW,316,5.0,13.0,80,0.00,BKN,OVC,0.45,WeatherDisplay:10.37,2013-06-25 20:19:00,
2013-06-25 16:24:00,77.1,70.1,29.68,NW,307,2.0,7.0,79,0.00,BKN,OVC,0.45,WeatherDisplay:10.37,2013-06-25 20:24:00,
2013-06-25 16:29:00,77.2,69.8,29.68,WNW,288,3.0,8.0,78,0.00,BKN,OVC,0.45,WeatherDisplay:10.37,2013-06-25 20:29:00,
2013-06-25 16:34:00,77.4,69.6,29.67,WNW,291,6.0,9.0,77,0.00,BKN,OVC,0.45,WeatherDisplay:10.37,2013-06-25 20:34:00,
2013-06-25 16:39:00,77.2,69.0,29.67,WNW,299,7.0,13.0,76,0.00,BKN,OVC,0.45,WeatherDisplay:10.37,2013-06-25 20:39:00,
2013-06-25 16:44:00,76.8,69.0,29.67,NW,307,5.0,12.0,77,0.00,BKN,OVC,0.45,WeatherDisplay:10.37,2013-06-25 20:44:00,
2013-06-25 16:49:00,76.5,69.1,29.66,WNW,285,2.0,8.0,78,0.00,BKN,OVC,0.45,WeatherDisplay:10.37,2013-06-25 20:49:00,
2013-06-25 16:54:00,76.6,70.0,29.66,WNW,291,1.0,5.0,80,0.00,BKN,OVC,0.45,WeatherDisplay:10.37,2013-06-25 20:54:00,
2013-06-25 16:59:00,76.7,69.3,29.67,WNW,284,3.0,6.0,78,0.00,BKN,OVC,0.45,WeatherDisplay:10.37,2013-06-25 20:59:00,
2013-06-25 17:04:00,76.6,68.8,29.66,WNW,294,5.0,10.0,77,0.00,BKN,OVC,0.45,WeatherDisplay:10.37,2013-06-25 21:04:00,
2013-06-25 17:09:00,76.4,68.6,29.66,West,263,1.0,4.0,77,0.00,BKN,OVC,0.45,WeatherDisplay:10.37,2013-06-25 21:09:00,
2013-06-25 17:14:00,76.3,68.5,29.66,WSW,252,3.0,6.0,77,0.00,OVC,OVC,0.45,WeatherDisplay:10.37,2013-06-25 21:14:00,
2013-06-25 17:19:00,75.9,69.3,29.66,West,279,0.0,6.0,80,0.00,OVC,OVC,0.45,WeatherDisplay:10.37,2013-06-25 21:19:00,
2013-06-25 17:24:00,75.8,69.2,29.66,WSW,255,0.0,4.0,80,0.00,OVC,OVC,0.45,WeatherDisplay:10.37,2013-06-25 21:24:00,
2013-06-25 17:29:00,75.6,69.0,29.66,WSW,238,0.0,3.0,80,0.00,OVC,OVC,0.45,WeatherDisplay:10.37,2013-06-25 21:29:00,
2013-06-25 17:34:00,75.6,68.6,29.66,WSW,237,0.0,3.0,79,0.00,OVC,OVC,0.45,WeatherDisplay:10.37,2013-06-25 21:34:00,
2013-06-25 17:39:00,75.5,68.9,29.67,NW,310,0.0,1.0,80,0.00,OVC,OVC,0.45,WeatherDisplay:10.37,2013-06-25 21:39:00,
2013-06-25 17:44:00,75.4,68.8,29.67,NW,312,0.0,2.0,80,0.00,OVC,OVC,0.45,WeatherDisplay:10.37,2013-06-25 21:44:00,
2013-06-25 17:49:00,75.1,68.5,29.67,West,263,0.0,1.0,80,0.00,OVC,OVC,0.45,WeatherDisplay:10.37,2013-06-25 21:49:00,
2013-06-25 17:54:00,74.7,68.1,29.67,WSW,237,0.0,1.0,80,0.00,OVC,OVC,0.45,WeatherDisplay:10.37,2013-06-25 21:54:00,
2013-06-25 17:59:00,74.1,68.9,29.67,SW,233,0.0,0.0,84,0.00,OVC,OVC,0.45,WeatherDisplay:10.37,2013-06-25 21:59:00,
2013-06-25 18:04:00,73.4,68.2,29.68,SSW,205,0.0,0.0,84,0.00,OVC,OVC,0.45,WeatherDisplay:10.37,2013-06-25 22:04:00,
2013-06-25 18:09:00,73.3,68.5,29.68,SSW,193,0.0,0.0,85,0.00,OVC,OVC,0.45,WeatherDisplay:10.37,2013-06-25 22:09:00,
2013-06-25 18:19:00,73.2,69.1,29.69,SSW,195,0.0,0.0,87,0.00,OVC,OVC,0.45,WeatherDisplay:10.37,2013-06-25 22:19:00,
2013-06-25 18:29:00,73.2,68.7,29.69,SW,228,0.0,2.0,86,0.00,OVC,OVC,0.45,WeatherDisplay:10.37,2013-06-25 22:29:00,
2013-06-25 18:34:00,73.0,68.6,29.69,WSW,255,0.0,3.0,86,0.00,OVC,OVC,0.45,WeatherDisplay:10.37,2013-06-25 22:34:00,
2013-06-25 18:39:00,73.1,69.0,29.70,WNW,296,0.0,5.0,87,0.00,OVC,OVC,0.45,WeatherDisplay:10.37,2013-06-25 22:39:00,
2013-06-25 18:44:00,73.1,68.6,29.69,WSW,250,1.0,6.0,86,0.00,OVC,OVC,0.45,WeatherDisplay:10.37,2013-06-25 22:44:00,
2013-06-25 18:49:00,72.9,68.5,29.69,SW,230,1.0,6.0,86,0.00,OVC,OVC,0.45,WeatherDisplay:10.37,2013-06-25 22:49:00,
2013-06-25 18:54:00,72.7,68.3,29.70,WSW,249,2.0,7.0,86,0.00,OVC,OVC,0.45,WeatherDisplay:10.37,2013-06-25 22:54:00,
2013-06-25 18:59:00,72.6,68.8,29.70,WSW,237,0.0,3.0,88,0.00,OVC,OVC,0.45,WeatherDisplay:10.37,2013-06-25 22:59:00,
2013-06-25 19:04:00,72.4,68.3,29.70,SW,231,0.0,3.0,87,0.00,OVC,OVC,0.45,WeatherDisplay:10.37,2013-06-25 23:04:00,
2013-06-25 19:09:00,72.3,68.2,29.69,West,260,1.0,6.0,87,0.00,OVC,OVC,0.45,WeatherDisplay:10.37,2013-06-25 23:09:00,
2013-06-25 19:14:00,72.3,68.5,29.69,WSW,237,0.0,4.0,88,0.00,BKN,OVC,0.45,WeatherDisplay:10.37,2013-06-25 23:14:00,
2013-06-25 19:19:00,72.2,68.4,29.69,WSW,245,1.0,5.0,88,0.00,BKN,OVC,0.45,WeatherDisplay:10.37,2013-06-25 23:19:00,
2013-06-25 19:24:00,72.1,68.3,29.69,SW,222,2.0,5.0,88,0.00,BKN,OVC,0.45,WeatherDisplay:10.37,2013-06-25 23:24:00,
2013-06-25 19:34:00,72.1,68.3,29.69,West,260,0.0,3.0,88,0.00,BKN,OVC,0.45,WeatherDisplay:10.37,2013-06-25 23:34:00,
2013-06-25 19:39:00,72.0,68.2,29.69,WSW,243,1.0,6.0,88,0.00,BKN,OVC,0.45,WeatherDisplay:10.37,2013-06-25 23:39:00,
2013-06-25 19:44:00,71.9,68.2,29.68,WSW,240,0.0,2.0,88,0.00,BKN,OVC,0.45,WeatherDisplay:10.37,2013-06-25 23:44:00,
2013-06-25 19:49:00,71.7,68.3,29.68,SW,233,0.0,3.0,89,0.00,BKN,OVC,0.45,WeatherDisplay:10.37,2013-06-25 23:49:00,
2013-06-25 19:54:00,71.6,68.2,29.68,SW,220,0.0,2.0,89,0.00,BKN,OVC,0.45,WeatherDisplay:10.37,2013-06-25 23:54:00,
2013-06-25 19:59:00,71.4,68.0,29.68,SSW,208,0.0,0.0,89,0.00,BKN,OVC,0.45,WeatherDisplay:10.37,2013-06-25 23:59:00,
2013-06-25 20:04:00,71.2,68.1,29.68,SW,221,0.0,1.0,90,0.00,BKN,OVC,0.45,WeatherDisplay:10.37,2013-06-26 00:04:00,
2013-06-25 20:09:00,70.9,67.8,29.67,WSW,254,0.0,0.0,90,0.00,BKN,OVC,0.45,WeatherDisplay:10.37,2013-06-26 00:09:00,
2013-06-25 20:14:00,70.6,68.2,29.66,WSW,254,0.0,0.0,92,0.00,BKN,OVC,0.45,WeatherDisplay:10.37,2013-06-26 00:14:00,
2013-06-25 20:19:00,70.4,68.0,29.65,SW,234,0.0,0.0,92,0.00,BKN,OVC,0.45,WeatherDisplay:10.37,2013-06-26 00:19:00,
2013-06-25 20:24:00,70.3,67.9,29.65,SSW,204,0.0,2.0,92,0.00,BKN,OVC,0.45,WeatherDisplay:10.37,2013-06-26 00:24:00,
2013-06-25 20:29:00,70.2,67.8,29.65,SSE,167,0.0,0.0,92,0.00,BKN,OVC,0.45,WeatherDisplay:10.37,2013-06-26 00:29:00,
2013-06-25 20:34:00,70.2,67.8,29.65,SSE,150,0.0,0.0,92,0.00,BKN,OVC,0.45,WeatherDisplay:10.37,2013-06-26 00:34:00,
2013-06-25 20:39:00,70.2,67.8,29.66,SE,140,0.0,2.0,92,0.00,BKN,OVC,0.45,WeatherDisplay:10.37,2013-06-26 00:39:00,
2013-06-25 20:44:00,70.1,67.7,29.67,NE,51,0.0,2.0,92,0.00,BKN,OVC,0.45,WeatherDisplay:10.37,2013-06-26 00:44:00,
2013-06-25 20:49:00,70.0,67.6,29.68,NW,317,0.0,3.0,92,0.00,BKN,OVC,0.45,WeatherDisplay:10.37,2013-06-26 00:49:00,
2013-06-25 20:54:00,69.8,67.7,29.67,WNW,298,0.0,1.0,93,0.00,BKN,OVC,0.45,WeatherDisplay:10.37,2013-06-26 00:54:00,
2013-06-25 20:59:00,69.6,67.5,29.68,West,262,0.0,5.0,93,0.00,BKN,OVC,0.45,WeatherDisplay:10.37,2013-06-26 00:59:00,
2013-06-25 21:04:00,69.5,67.4,29.68,West,259,0.0,2.0,93,0.00,BKN,OVC,0.45,WeatherDisplay:10.37,2013-06-26 01:04:00,
2013-06-25 21:09:00,69.5,67.4,29.68,West,261,0.0,2.0,93,0.00,BKN,OVC,0.45,WeatherDisplay:10.37,2013-06-26 01:09:00,
2013-06-25 21:14:00,69.5,67.7,29.68,WSW,252,0.0,4.0,94,0.00,BKN,OVC,0.45,WeatherDisplay:10.37,2013-06-26 01:14:00,
2013-06-25 21:19:00,69.5,67.7,29.68,WSW,243,0.0,5.0,94,0.00,BKN,OVC,0.45,WeatherDisplay:10.37,2013-06-26 01:19:00,
2013-06-25 21:24:00,69.4,67.6,29.68,SW,225,0.0,3.0,94,0.00,BKN,OVC,0.45,WeatherDisplay:10.37,2013-06-26 01:24:00,
2013-06-25 21:29:00,69.4,67.6,29.68,WSW,244,0.0,3.0,94,0.00,BKN,OVC,0.45,WeatherDisplay:10.37,2013-06-26 01:29:00,
2013-06-25 21:34:00,69.5,67.7,29.68,WNW,296,0.0,3.0,94,0.00,BKN,OVC,0.45,WeatherDisplay:10.37,2013-06-26 01:34:00,
2013-06-25 21:39:00,69.4,67.6,29.68,WSW,253,0.0,1.0,94,0.00,BKN,OVC,0.45,WeatherDisplay:10.37,2013-06-26 01:39:00,
2013-06-25 21:44:00,69.3,67.5,29.68,WSW,251,0.0,4.0,94,0.00,BKN,OVC,0.45,WeatherDisplay:10.37,2013-06-26 01:44:00,
2013-06-25 21:49:00,69.3,67.5,29.68,West,279,0.0,3.0,94,0.00,BKN,OVC,0.45,WeatherDisplay:10.37,2013-06-26 01:49:00,
2013-06-25 21:54:00,69.2,67.4,29.69,West,272,1.0,3.0,94,0.00,BKN,OVC,0.45,WeatherDisplay:10.37,2013-06-26 01:54:00,
2013-06-25 21:59:00,69.2,67.4,29.69,West,262,0.0,2.0,94,0.00,BKN,OVC,0.45,WeatherDisplay:10.37,2013-06-26 01:59:00,
2013-06-25 22:04:00,69.1,67.3,29.69,West,267,1.0,4.0,94,0.00,BKN,OVC,0.45,WeatherDisplay:10.37,2013-06-26 02:04:00,
2013-06-25 22:09:00,69.0,67.2,29.69,West,274,0.0,1.0,94,0.00,BKN,OVC,0.45,WeatherDisplay:10.37,2013-06-26 02:09:00,
2013-06-25 22:19:00,68.8,67.3,29.69,WNW,291,1.0,4.0,95,0.00,BKN,OVC,0.45,WeatherDisplay:10.37,2013-06-26 02:19:00,
2013-06-25 22:29:00,68.7,67.2,29.69,WNW,291,0.0,3.0,95,0.00,BKN,OVC,0.45,WeatherDisplay:10.37,2013-06-26 02:29:00,
2013-06-25 22:34:00,68.5,67.0,29.69,WNW,293,0.0,0.0,95,0.00,BKN,OVC,0.45,WeatherDisplay:10.37,2013-06-26 02:34:00,
2013-06-25 22:44:00,68.1,66.7,29.69,WNW,299,0.0,0.0,95,0.00,BKN,OVC,0.45,WeatherDisplay:10.37,2013-06-26 02:44:00,
2013-06-25 22:49:00,68.0,66.5,29.69,NW,307,0.0,0.0,95,0.00,BKN,OVC,0.45,WeatherDisplay:10.37,2013-06-26 02:49:00,
2013-06-25 22:54:00,67.9,66.4,29.69,NW,313,0.0,0.0,95,0.00,BKN,OVC,0.45,WeatherDisplay:10.37,2013-06-26 02:54:00,
2013-06-25 22:59:00,67.6,66.5,29.69,NW,313,0.0,0.0,96,0.00,BKN,OVC,0.45,WeatherDisplay:10.37,2013-06-26 02:59:00,
2013-06-25 23:04:00,67.4,66.2,29.69,NW,313,0.0,0.0,96,0.00,BKN,OVC,0.45,WeatherDisplay:10.37,2013-06-26 03:04:00,
2013-06-25 23:09:00,67.3,66.1,29.69,NW,310,0.0,1.0,96,0.00,BKN,OVC,0.45,WeatherDisplay:10.37,2013-06-26 03:09:00,
2013-06-25 23:14:00,67.1,65.9,29.69,WNW,302,0.0,0.0,96,0.00,BKN,OVC,0.45,WeatherDisplay:10.37,2013-06-26 03:14:00,
2013-06-25 23:19:00,67.1,65.9,29.69,WNW,302,0.0,0.0,96,0.00,BKN,OVC,0.45,WeatherDisplay:10.37,2013-06-26 03:19:00,
2013-06-25 23:24:00,67.2,66.6,29.69,WNW,302,0.0,1.0,98,0.00,BKN,OVC,0.45,WeatherDisplay:10.37,2013-06-26 03:24:00,
2013-06-25 23:29:00,67.2,66.0,29.69,WNW,302,0.0,0.0,96,0.00,BKN,OVC,0.45,WeatherDisplay:10.37,2013-06-26 03:29:00,
2013-06-25 23:34:00,67.2,66.0,29.69,WNW,302,0.0,0.0,96,0.00,BKN,OVC,0.45,WeatherDisplay:10.37,2013-06-26 03:34:00,
2013-06-25 23:39:00,67.2,66.0,29.69,WNW,302,0.0,0.0,96,0.00,BKN,OVC,0.45,WeatherDisplay:10.37,2013-06-26 03:39:00,
2013-06-25 23:44:00,67.1,65.9,29.69,WNW,302,0.0,0.0,96,0.00,BKN,OVC,0.45,WeatherDisplay:10.37,2013-06-26 03:44:00,
2013-06-25 23:49:00,67.1,65.9,29.69,WNW,302,0.0,0.0,96,0.00,BKN,OVC,0.45,WeatherDisplay:10.37,2013-06-26 03:49:00,
2013-06-25 23:54:00,67.0,65.8,29.69,WNW,302,0.0,0.0,96,0.00,BKN,OVC,0.45,WeatherDisplay:10.37,2013-06-26 03:54:00,
2013-06-25 23:59:00,66.8,65.6,29.69,WNW,302,0.0,0.0,96,0.00,RA,OVC,0.00,WeatherDisplay:10.37,2013-06-26 03:59:00,